Regional Weather Roundup
Issued by NWS Little Rock, AR

Home | Current Version | Previous Version | Graphics & Text | Print | Product List | Glossary On
Versions: 1 2 3 4 5 6 7 8 9 10 11 12 13 14 15 16 17 18 19 20 21 22 23 24 25 26 27 28 29 30 31 32 33 34 35 36 37 38 39 40 41 42 43 44 45 46 47 48 49 50
000
ASUS44 KLZK 282005
RWRLZK

WEATHER ROUNDUP FOR ARKANSAS
NATIONAL WEATHER SERVICE LITTLE ROCK AR
200 PM CST WED JAN 28 2015

NOTE: "FAIR" INDICATES FEW OR NO CLOUDS BELOW 12,000 FEET WITH NO
SIGNIFICANT WEATHER AND/OR OBSTRUCTIONS TO VISIBILITY.

ARZ001-003-010-029-282100-
NORTHWEST ARKANSAS

CITY           SKY/WX    TMP DP  RH WIND       PRES   REMARKS
FAYETTEVILLE   SUNNY     67  40  37 S24G31    29.98F
FORT SMITH     MOSUNNY   65  41  41 NE15      30.00F
HARRISON       SUNNY     67  39  35 SE14      30.01F
BENTONVILLE    SUNNY     70  37  30 SW17G26   29.97F
ROGERS         SUNNY     70  40  33 S18G30    29.96F
SILOAM SPGS    MOSUNNY  N/A N/A N/A S21G35    29.96F
HIGHFILL       SUNNY     70  40  33 S18G28    29.95F
SPRINGDALE     MOSUNNY   68  39  34 S15G26    29.99F
$$

ARZ004-005-016-282100-
NORTH CENTRAL ARKANSAS

CITY           SKY/WX    TMP DP  RH WIND       PRES   REMARKS
BATESVILLE     SUNNY     57  34  41 SE12      30.13F
FLIPPIN        SUNNY     63  36  36 S12       30.04F
MTN HOME       SUNNY     61  35  37 S12G20    30.04F
$$

ARZ040-041-282100-
WEST CENTRAL ARKANSAS

CITY           SKY/WX    TMP DP  RH WIND       PRES   REMARKS
MENA           SUNNY     73  43  33 SW3       30.04F
MOUNT IDA      SUNNY     68  42  38 S7        30.05F
$$

ARZ009-017-025-026-028-282100-
NORTHEAST ARKANSAS

CITY           SKY/WX    TMP DP  RH WIND       PRES   REMARKS
CORNING        FAIR      50  34  53 SE12      30.16F
JONESBORO      SUNNY     52  35  52 S13       30.16F
NEWPORT        SUNNY     56  36  47 S14       30.17F
WALNUT RIDGE   SUNNY     54  34  47 S12       30.16F
BLYTHEVILLE    SUNNY     52  32  46 SE12      30.18F
$$

ARZ022-023-033-042-044-282100-
CENTRAL ARKANSAS

CITY           SKY/WX    TMP DP  RH WIND       PRES   REMARKS
LITTLE ROCK    MOSUNNY   62  36  37 SE9       30.13F
N LITTLE ROCK  MOSUNNY   59  40  49 SE9G17    30.13F
JACKSONVILLE   SUNNY     60  38  44 SE9G18    30.12F
SEARCY         SUNNY     60  36  40 S13G20    30.15F
HOT SPRINGS    SUNNY     66  42  41 S7        30.10F
RUSSELLVILLE   SUNNY     63  39  41 E8        30.07F
CLINTON        FAIR      59  37  44 SE7       30.11F
$$

ARZ036-282100-
EAST ARKANSAS

CITY           SKY/WX    TMP DP  RH WIND       PRES   REMARKS
WEST MEMPHIS   SUNNY     57  34  41 SE12      30.17F
$$

ARZ050-053-066-070-073-282100-
SOUTHWEST ARKANSAS

CITY           SKY/WX    TMP DP  RH WIND       PRES   REMARKS
ARKADELPHIA    FAIR      71  47  42 S9        30.10F
CAMDEN         SUNNY     73  39  29 MISG      30.12F
TEXARKANA      SUNNY     76  44  32 S15       30.07F
EL DORADO      SUNNY     72  41  32 S13       30.12F
DE QUEEN       SUNNY     74  46  36 S9G17     30.03F
$$

ARZ056-057-069-282100-
SOUTHEAST ARKANSAS

CITY           SKY/WX    TMP DP  RH WIND       PRES   REMARKS
PINE BLUFF     SUNNY     63  40  42 SE14      30.14F
STUTTGART      SUNNY     59  36  41 SE14      30.16F
MONTICELLO     SUNNY     65  37  35 SE10      30.15F

$$




USA.gov is the U.S. government's official web portal to all federal, state and local government web resources and services.